Date String (YYYY-MM-DD hh:mm:ss) UTC,Instrument flags,Ambient pressure (hPa),Sample flow (lpm),Bypass flow (lpm),Sample temperature (°C),Ambient temperature (°C),ASC tube jacket temperature (°C),LED temperature (°C),Box temperature (°C),Sample RH (%),Span deviation,Mass concentration (μg/m³),Mass concentration (μg/m³),Mass concentration (μg/m³)
DateTimeUTC,F1_M11,P_M11,Q1_M11,Q2_M11,T1_M11,T2_M11,T3_M11,T4_M11,T5_M11,U1_M11,ZSPAN_M11,X0_M11,X2_M11,X1_M11
2021-10-15 10:00:00,,0829.5,5.00,0.00,23.2,22.2,00.0,32.3,25.0,11.7,0000.0,0008.68,0004.30,0004.04
2021-10-15 10:01:00,,0829.5,4.99,0.00,23.2,22.2,00.0,32.3,25.0,12.1,0000.0,0008.25,0004.01,0003.78
2021-10-15 10:02:00,,0829.5,5.00,0.00,23.2,22.2,00.0,32.3,25.0,12.3,0000.0,0007.97,0003.77,0003.55
2021-10-15 10:03:00,,0829.5,5.01,0.00,23.2,22.2,00.0,32.3,25.0,12.6,0000.0,0007.76,0003.60,0003.39
2021-10-15 10:04:00,,0829.5,4.99,0.00,23.1,22.2,00.0,32.3,25.0,14.7,0000.0,0005.79,0003.69,0003.46
2021-10-15 10:05:00,,0829.5,4.99,0.00,23.1,22.2,00.0,32.3,24.9,16.0,0000.0,0006.05,0003.94,0003.69
2021-10-15 10:06:00,,0829.5,5.00,0.00,23.1,22.2,00.0,32.3,24.9,16.4,0000.0,0006.21,0004.16,0003.89
2021-10-15 10:07:00,,0829.5,5.00,0.00,23.1,22.2,00.0,32.3,24.9,17.3,0000.0,0006.71,0004.48,0004.18
2021-10-15 10:08:00,,0829.5,5.00,0.00,23.1,22.2,00.0,32.3,25.0,18.2,0000.0,0007.57,0005.00,0004.64
2021-10-15 10:09:00,,0829.5,5.01,0.00,23.1,22.2,00.0,32.3,24.9,18.5,0000.0,0008.14,0005.49,0005.11
2021-10-15 10:10:00,,0829.5,4.99,0.00,23.1,22.2,00.0,32.3,24.9,18.2,0000.0,0008.53,0005.88,0005.51
2021-10-15 10:11:00,,0829.5,5.01,0.00,23.1,22.2,00.0,32.3,24.9,18.0,0000.0,0008.93,0006.24,0005.83
2021-10-15 10:12:00,,0829.5,5.01,0.00,23.1,22.2,00.0,32.3,25.0,18.2,0000.1,0009.44,0006.69,0006.26
2021-10-15 10:13:00,,0829.6,5.00,0.00,23.1,22.2,00.0,32.3,25.0,18.2,0003.8,0009.88,0007.11,0006.69
2021-10-15 10:14:00,,0829.6,5.00,0.00,23.1,22.2,00.0,32.3,24.9,17.8,0003.3,0010.24,0007.49,0007.05
2021-10-15 10:15:00,,0829.6,4.99,0.00,23.1,22.2,00.0,32.3,24.9,17.3,0003.1,0010.36,0007.64,0007.23
2021-10-15 10:16:00,,0829.6,5.01,0.00,23.1,22.2,00.0,32.3,24.9,15.7,0003.2,0010.16,0007.51,0007.11
2021-10-15 10:17:00,,0829.6,5.00,0.00,23.1,22.2,00.0,32.3,24.9,15.1,0003.3,0010.01,0007.37,0006.98
2021-10-15 10:18:00,,0829.6,5.00,0.00,23.1,22.2,00.0,32.3,24.9,14.0,0003.7,0009.87,0007.13,0006.73
2021-10-15 10:19:00,,0829.6,4.99,0.00,23.1,22.2,00.0,32.3,24.9,13.5,0003.5,0009.48,0006.79,0006.41
2021-10-15 10:20:00,,0829.7,5.01,0.00,23.1,22.2,00.0,32.3,24.9,13.1,0003.2,0008.91,0006.33,0006.01
2021-10-15 10:21:00,,0829.6,5.01,0.00,23.1,22.2,00.0,32.2,24.9,13.7,0002.6,0008.63,0006.03,0005.72
2021-10-15 10:22:00,,0829.7,4.99,0.00,23.1,22.1,00.0,32.2,24.9,14.0,0000.5,0008.37,0005.80,0005.50
2021-10-15 10:23:00,,0829.7,5.01,0.00,23.1,22.1,00.0,32.2,24.9,13.7,0000.0,0008.10,0005.51,0005.21
2021-10-15 10:24:00,,0829.8,5.00,0.00,23.1,22.1,00.0,32.2,24.9,14.9,0000.0,0007.83,0005.29,0004.98
2021-10-15 10:25:00,,0829.8,4.99,0.00,23.1,22.1,00.0,32.2,24.9,16.1,0000.0,0007.77,0005.20,0004.88
2021-10-15 10:26:00,,0829.8,5.01,0.00,23.1,22.1,00.0,32.2,24.9,17.0,0000.0,0008.35,0005.25,0004.92
2021-10-15 10:27:00,,0829.9,5.00,0.00,23.1,22.1,00.0,32.2,24.9,16.8,0000.0,0008.53,0005.35,0005.00
2021-10-15 10:28:00,,0829.8,5.00,0.00,23.1,22.1,00.0,32.2,24.9,17.0,0000.0,0008.78,0005.57,0005.20
2021-10-15 10:29:00,,0829.8,5.00,0.00,23.1,22.1,00.0,32.2,24.9,16.5,0000.0,0008.84,0005.70,0005.34
2021-10-15 10:30:00,,0829.8,5.00,0.00,23.1,22.1,00.0,32.2,24.9,13.8,0000.0,0008.79,0005.69,0005.35
2021-10-15 10:31:00,,0829.8,5.01,0.00,23.1,22.1,00.0,32.2,24.9,11.7,0000.0,0008.69,0005.59,0005.26
2021-10-15 10:32:00,,0829.9,5.00,0.00,23.0,22.1,00.0,32.2,24.8,11.2,0000.0,0008.77,0005.45,0005.12
2021-10-15 10:33:00,,0829.9,5.00,0.00,23.0,22.0,00.0,32.2,24.8,11.4,0000.0,0008.65,0005.26,0004.94
2021-10-15 10:34:00,,0829.9,4.99,0.00,23.0,22.1,00.0,32.2,24.8,14.6,0000.0,0008.72,0005.33,0005.01
2021-10-15 10:35:00,,0830.0,5.00,0.00,23.0,22.1,00.0,32.2,24.8,17.2,0000.0,0009.02,0005.57,0005.24
2021-10-15 10:36:00,,0830.0,5.01,0.00,23.0,22.1,00.0,32.2,24.8,18.1,0000.0,0009.37,0005.72,0005.40
2021-10-15 10:37:00,,0829.8,5.00,0.00,23.0,22.1,00.0,32.2,24.8,18.6,0000.0,0009.11,0005.85,0005.52
2021-10-15 10:38:00,,0829.9,5.01,0.00,23.0,22.1,00.0,32.2,24.8,19.1,0000.0,0009.33,0006.06,0005.71
2021-10-15 10:39:00,,0830.0,4.99,0.00,23.0,22.1,00.0,32.2,24.8,19.4,0000.0,0009.61,0006.26,0005.91
2021-10-15 10:40:00,,0830.1,5.01,0.00,23.0,22.1,00.0,32.1,24.8,19.5,-000.0,0009.95,0006.51,0006.18
2021-10-15 10:41:00,,0830.1,4.98,0.00,23.0,22.1,00.0,32.1,24.8,19.5,-000.7,0010.40,0006.99,0006.61
2021-10-15 10:42:00,,0830.1,5.01,0.00,23.0,22.1,00.0,32.1,24.8,19.5,-001.0,0010.99,0007.53,0007.16
2021-10-15 10:43:00,,0830.1,4.99,0.00,23.0,22.1,00.0,32.1,24.8,19.4,-001.4,0011.49,0008.06,0007.68
2021-10-15 10:44:00,,0830.1,5.01,0.00,23.0,22.1,00.0,32.1,24.8,19.4,-001.1,0012.32,0008.59,0008.21
2021-10-15 10:45:00,,0830.1,4.99,0.00,23.0,22.1,00.0,32.1,24.8,19.4,-000.9,0012.55,0008.91,0008.53
2021-10-15 10:46:00,,0830.1,5.01,0.00,23.0,22.1,00.0,32.1,24.9,19.4,-001.0,0012.72,0009.02,0008.64
2021-10-15 10:47:00,,0830.1,5.00,0.00,23.0,22.1,00.0,32.1,24.8,19.1,-001.0,0012.84,0009.00,0008.64
2021-10-15 10:48:00,,0830.1,4.99,0.00,23.0,22.1,00.0,32.1,24.9,19.0,-001.0,0012.81,0008.98,0008.60
2021-10-15 10:49:00,,0830.1,5.00,0.00,23.0,22.1,00.0,32.1,24.9,18.9,-000.8,0013.33,0008.91,0008.55
2021-10-15 10:50:00,,0830.2,5.00,0.00,23.0,22.1,00.0,32.1,24.8,18.7,-000.6,0013.14,0008.81,0008.46
2021-10-15 10:51:00,,0830.3,5.01,0.00,23.0,22.1,00.0,32.1,24.8,18.6,-001.0,0013.01,0008.77,0008.40
2021-10-15 10:52:00,,0830.3,5.00,0.00,23.0,22.1,00.0,32.1,24.8,18.8,-000.7,0013.02,0008.76,0008.39
2021-10-15 10:53:00,,0830.2,5.00,0.00,23.0,22.1,00.0,32.1,24.8,18.9,-000.2,0013.08,0008.83,0008.43
2021-10-15 10:54:00,,0830.3,5.00,0.00,23.0,22.1,00.0,32.1,24.8,19.2,-000.2,0012.91,0008.91,0008.52
2021-10-15 10:55:00,,0830.2,4.99,0.00,23.0,22.1,00.0,32.1,24.8,19.4,-000.5,0012.61,0008.98,0008.59
2021-10-15 10:56:00,,0830.1,5.01,0.00,23.0,22.1,00.0,32.1,24.8,19.5,-000.4,0012.77,0009.08,0008.68
2021-10-15 10:57:00,,0830.2,4.99,0.00,23.0,22.1,00.0,32.1,24.8,19.6,-000.3,0012.71,0009.16,0008.76
2021-10-15 10:58:00,,0830.1,5.01,0.00,23.0,22.1,00.0,32.1,24.8,19.6,-000.1,0012.59,0009.33,0008.90
2021-10-15 10:59:00,,0830.1,4.98,0.00,23.0,22.1,00.0,32.1,24.8,20.3,0000.3,0012.70,0009.43,0009.01
